Year,Month,Day,Hour,Minute,Value (Times are PST for temperature in C)
2010,04,08,00,00,1.30
2010,04,08,00,01,1.30
2010,04,08,00,02,1.20
2010,04,08,00,03,1.20
2010,04,08,00,04,1.10
2010,04,08,00,05,1.10
2010,04,08,00,06,1.10
2010,04,08,00,07,1.00
2010,04,08,00,08,1.00
2010,04,08,00,09,1.00
2010,04,08,00,10,1.00
2010,04,08,00,11,1.00
2010,04,08,00,12,0.90
2010,04,08,00,13,0.90
2010,04,08,00,14,0.80
2010,04,08,00,15,0.80
2010,04,08,00,16,0.80
2010,04,08,00,17,0.80
2010,04,08,00,18,0.80
2010,04,08,00,19,0.80
2010,04,08,00,20,0.80
2010,04,08,00,21,0.80
2010,04,08,00,22,0.80
2010,04,08,00,23,0.80
2010,04,08,00,24,0.80
2010,04,08,00,25,0.80
2010,04,08,00,26,0.70
2010,04,08,00,27,0.70
2010,04,08,00,28,0.70
2010,04,08,00,29,0.70
2010,04,08,00,30,0.70
2010,04,08,00,31,0.70
2010,04,08,00,32,0.70
2010,04,08,00,33,0.60
2010,04,08,00,34,0.70
2010,04,08,00,35,0.70
2010,04,08,00,36,0.70
2010,04,08,00,37,0.60
2010,04,08,00,38,0.60
2010,04,08,00,39,0.60
2010,04,08,00,40,0.60
2010,04,08,00,41,0.60
2010,04,08,00,42,0.60
2010,04,08,00,43,0.70
2010,04,08,00,44,0.70
2010,04,08,00,45,0.70
2010,04,08,00,46,0.70
2010,04,08,00,47,0.70
2010,04,08,00,48,0.80
2010,04,08,00,49,0.80
2010,04,08,00,50,0.80
2010,04,08,00,51,0.80
2010,04,08,00,52,0.80
2010,04,08,00,53,0.80
2010,04,08,00,54,0.80
2010,04,08,00,55,0.90
2010,04,08,00,56,0.90
2010,04,08,00,57,0.80
2010,04,08,00,58,0.80
2010,04,08,00,59,0.90
2010,04,08,01,00,0.90
2010,04,08,01,01,0.90
2010,04,08,01,02,0.90
2010,04,08,01,03,0.90
2010,04,08,01,04,0.80
2010,04,08,01,05,0.80
2010,04,08,01,06,0.80
2010,04,08,01,07,0.80
2010,04,08,01,08,0.80
2010,04,08,01,09,0.80
2010,04,08,01,10,0.80
2010,04,08,01,11,0.80
2010,04,08,01,12,0.80
2010,04,08,01,13,0.80
2010,04,08,01,14,0.80
2010,04,08,01,15,0.80
2010,04,08,01,16,0.80
2010,04,08,01,17,0.80
2010,04,08,01,18,0.80
2010,04,08,01,19,0.80
2010,04,08,01,20,0.80
2010,04,08,01,21,0.80
2010,04,08,01,22,0.80
2010,04,08,01,23,0.80
2010,04,08,01,24,0.80
2010,04,08,01,25,0.80
2010,04,08,01,26,0.90
2010,04,08,01,27,0.90
2010,04,08,01,28,0.90
2010,04,08,01,29,0.90
2010,04,08,01,30,0.90
2010,04,08,01,31,0.90
2010,04,08,01,32,0.90
2010,04,08,01,33,0.90
2010,04,08,01,34,0.90
2010,04,08,01,35,1.00
2010,04,08,01,36,1.00
2010,04,08,01,37,1.00
2010,04,08,01,38,1.00
2010,04,08,01,39,1.00
2010,04,08,01,40,1.00
2010,04,08,01,41,1.10
2010,04,08,01,42,1.10
2010,04,08,01,43,1.10
2010,04,08,01,44,1.10
2010,04,08,01,45,1.10
2010,04,08,01,46,1.10
2010,04,08,01,47,1.20
2010,04,08,01,48,1.20
2010,04,08,01,49,1.20
2010,04,08,01,50,1.20
2010,04,08,01,51,1.20
2010,04,08,01,52,1.20
2010,04,08,01,53,1.20
2010,04,08,01,54,1.20
2010,04,08,01,55,1.20
2010,04,08,01,56,1.20
2010,04,08,01,57,1.20
2010,04,08,01,58,1.20
2010,04,08,01,59,1.30
2010,04,08,02,00,1.30
2010,04,08,02,01,1.30
2010,04,08,02,02,1.30
2010,04,08,02,03,1.30
2010,04,08,02,04,1.30
2010,04,08,02,05,1.30
2010,04,08,02,06,1.30
2010,04,08,02,07,1.30
2010,04,08,02,08,1.30
2010,04,08,02,09,1.30
2010,04,08,02,10,1.30
2010,04,08,02,11,1.40
2010,04,08,02,12,1.40
2010,04,08,02,13,1.40
2010,04,08,02,14,1.40
2010,04,08,02,15,1.50
2010,04,08,02,16,1.50
2010,04,08,02,17,1.50
2010,04,08,02,18,1.50
2010,04,08,02,19,1.50
2010,04,08,02,20,1.60
2010,04,08,02,21,1.60
2010,04,08,02,22,1.60
2010,04,08,02,23,1.70
2010,04,08,02,24,1.70
2010,04,08,02,25,1.70
2010,04,08,02,26,1.70
2010,04,08,02,27,1.80
2010,04,08,02,28,1.80
2010,04,08,02,29,1.80
2010,04,08,02,30,1.80
2010,04,08,02,31,1.90
2010,04,08,02,32,1.90
2010,04,08,02,33,1.90
2010,04,08,02,34,2.00
2010,04,08,02,35,2.10
2010,04,08,02,36,2.10
2010,04,08,02,37,2.20
2010,04,08,02,38,2.20
2010,04,08,02,39,2.20
2010,04,08,02,40,2.20
2010,04,08,02,41,2.20
2010,04,08,02,42,2.20
2010,04,08,02,43,2.20
2010,04,08,02,44,2.20
2010,04,08,02,45,2.20
2010,04,08,02,46,2.20
2010,04,08,02,47,2.20
2010,04,08,02,48,2.20
2010,04,08,02,49,2.20
2010,04,08,02,50,2.20
2010,04,08,02,51,2.20
2010,04,08,02,52,2.20
2010,04,08,02,53,2.20
2010,04,08,02,54,2.20
2010,04,08,02,55,2.20
2010,04,08,02,56,2.20
2010,04,08,02,57,2.20
2010,04,08,02,58,2.20
2010,04,08,02,59,2.20
2010,04,08,03,00,2.20
2010,04,08,03,01,2.20
2010,04,08,03,02,2.20
2010,04,08,03,03,2.20
2010,04,08,03,04,2.20
2010,04,08,03,05,2.20
2010,04,08,03,06,2.20
2010,04,08,03,07,2.20
2010,04,08,03,08,2.20
2010,04,08,03,09,2.20
2010,04,08,03,10,2.20
2010,04,08,03,11,2.20
2010,04,08,03,12,2.20
2010,04,08,03,13,2.20
2010,04,08,03,14,2.20
2010,04,08,03,15,2.20
2010,04,08,03,16,2.20
2010,04,08,03,17,2.20
2010,04,08,03,18,2.20
2010,04,08,03,19,2.20
2010,04,08,03,20,2.20
2010,04,08,03,21,2.20
2010,04,08,03,22,2.20
2010,04,08,03,23,2.30
2010,04,08,03,24,2.30
2010,04,08,03,25,2.30
2010,04,08,03,26,2.30
2010,04,08,03,27,2.30
2010,04,08,03,28,2.30
2010,04,08,03,29,2.40
2010,04,08,03,30,2.40
2010,04,08,03,31,2.50
2010,04,08,03,32,2.60
2010,04,08,03,33,2.70
2010,04,08,03,34,2.70
2010,04,08,03,35,2.70
2010,04,08,03,36,2.70
2010,04,08,03,37,2.70
2010,04,08,03,38,2.70
2010,04,08,03,39,2.70
2010,04,08,03,40,2.70
2010,04,08,03,41,2.70
2010,04,08,03,42,2.70
2010,04,08,03,43,2.70
2010,04,08,03,44,2.80
2010,04,08,03,45,2.80
2010,04,08,03,46,2.80
2010,04,08,03,47,2.80
2010,04,08,03,48,2.90
2010,04,08,03,49,2.90
2010,04,08,03,50,2.90
2010,04,08,03,51,2.90
2010,04,08,03,52,2.90
2010,04,08,03,53,2.90
2010,04,08,03,54,2.90
2010,04,08,03,55,2.80
2010,04,08,03,56,2.80
2010,04,08,03,57,2.80
2010,04,08,03,58,2.80
2010,04,08,03,59,2.80
2010,04,08,04,00,2.70
2010,04,08,04,01,2.70
2010,04,08,04,02,2.70
2010,04,08,04,03,2.70
2010,04,08,04,04,2.70
2010,04,08,04,05,2.70
2010,04,08,04,06,2.70
2010,04,08,04,07,2.80
2010,04,08,04,08,2.70
2010,04,08,04,09,2.70
2010,04,08,04,10,2.70
2010,04,08,04,11,2.70
2010,04,08,04,12,2.70
2010,04,08,04,13,2.60
2010,04,08,04,14,2.60
2010,04,08,04,15,2.50
2010,04,08,04,16,2.50
2010,04,08,04,17,2.40
2010,04,08,04,18,2.40
2010,04,08,04,19,2.30
2010,04,08,04,20,2.30
2010,04,08,04,21,2.30
2010,04,08,04,22,2.20
2010,04,08,04,23,2.20
2010,04,08,04,24,2.20
2010,04,08,04,25,2.20
2010,04,08,04,26,2.20
2010,04,08,04,27,2.20
2010,04,08,04,28,2.20
2010,04,08,04,29,2.20
2010,04,08,04,30,2.20
2010,04,08,04,31,2.20
2010,04,08,04,32,2.20
2010,04,08,04,33,2.20
2010,04,08,04,34,2.30
2010,04,08,04,35,2.30
2010,04,08,04,36,2.20
2010,04,08,04,37,2.20
2010,04,08,04,38,2.20
2010,04,08,04,39,2.20
2010,04,08,04,40,2.20
2010,04,08,04,41,2.10
2010,04,08,04,42,2.10
2010,04,08,04,43,2.00
2010,04,08,04,44,2.00
2010,04,08,04,45,1.90
2010,04,08,04,46,1.90
2010,04,08,04,47,2.00
2010,04,08,04,48,2.10
2010,04,08,04,49,2.10
2010,04,08,04,50,2.20
2010,04,08,04,51,2.20
2010,04,08,04,52,2.30
2010,04,08,04,53,2.30
2010,04,08,04,54,2.40
2010,04,08,04,55,2.50
2010,04,08,04,56,2.50
2010,04,08,04,57,2.60
2010,04,08,04,58,2.70
2010,04,08,04,59,2.70
2010,04,08,05,00,2.90
2010,04,08,05,01,2.90
2010,04,08,05,02,3.10
2010,04,08,05,03,3.10
2010,04,08,05,04,3.20
2010,04,08,05,05,3.30
2010,04,08,05,06,3.30
2010,04,08,05,07,3.40
2010,04,08,05,08,3.50
2010,04,08,05,09,3.50
2010,04,08,05,10,3.60
2010,04,08,05,11,3.60
2010,04,08,05,12,3.60
2010,04,08,05,13,3.50
2010,04,08,05,14,3.50
2010,04,08,05,15,3.50
2010,04,08,05,16,3.50
2010,04,08,05,17,3.50
2010,04,08,05,18,3.50
2010,04,08,05,19,3.50
2010,04,08,05,20,3.50
2010,04,08,05,21,3.50
2010,04,08,05,22,3.50
2010,04,08,05,23,3.40
2010,04,08,05,24,3.40
2010,04,08,05,25,3.30
2010,04,08,05,26,3.30
2010,04,08,05,27,3.30
2010,04,08,05,28,3.30
2010,04,08,05,29,3.30
2010,04,08,05,30,3.30
2010,04,08,05,31,3.40
2010,04,08,05,32,3.40
2010,04,08,05,33,3.50
2010,04,08,05,34,3.50
2010,04,08,05,35,3.50
2010,04,08,05,36,3.50
2010,04,08,05,37,3.50
2010,04,08,05,38,3.50
2010,04,08,05,39,3.50
2010,04,08,05,40,3.50
2010,04,08,05,41,3.50
2010,04,08,05,42,3.60
2010,04,08,05,43,3.50
2010,04,08,05,44,3.50
2010,04,08,05,45,3.50
2010,04,08,05,46,3.50
2010,04,08,05,47,3.50
2010,04,08,05,48,3.60
2010,04,08,05,49,3.60
2010,04,08,05,50,3.70
2010,04,08,05,51,3.70
2010,04,08,05,52,3.80
2010,04,08,05,53,3.80
2010,04,08,05,54,3.80
2010,04,08,05,55,3.70
2010,04,08,05,56,3.70
2010,04,08,05,57,3.70
2010,04,08,05,58,3.70
2010,04,08,05,59,3.70
2010,04,08,06,00,3.70
2010,04,08,06,01,3.70
2010,04,08,06,02,3.70
2010,04,08,06,03,3.60
2010,04,08,06,04,3.60
2010,04,08,06,05,3.60
2010,04,08,06,06,3.50
2010,04,08,06,07,3.50
2010,04,08,06,08,3.40
2010,04,08,06,09,3.40
2010,04,08,06,10,3.40
2010,04,08,06,11,3.40
2010,04,08,06,12,3.40
2010,04,08,06,13,3.40
2010,04,08,06,14,3.40
2010,04,08,06,15,3.40
2010,04,08,06,16,3.40
2010,04,08,06,17,3.40
2010,04,08,06,18,3.40
2010,04,08,06,19,3.40
2010,04,08,06,20,3.30
2010,04,08,06,21,3.30
2010,04,08,06,22,3.30
2010,04,08,06,23,3.30
2010,04,08,06,24,3.30
2010,04,08,06,25,3.30
2010,04,08,06,26,3.30
2010,04,08,06,27,3.30
2010,04,08,06,28,3.30
2010,04,08,06,29,3.30
2010,04,08,06,30,3.30
2010,04,08,06,31,3.40
2010,04,08,06,32,3.50
2010,04,08,06,33,3.50
2010,04,08,06,34,3.60
2010,04,08,06,35,3.60
2010,04,08,06,36,3.60
2010,04,08,06,37,3.50
2010,04,08,06,38,3.50
2010,04,08,06,39,3.50
2010,04,08,06,40,3.60
2010,04,08,06,41,3.60
2010,04,08,06,42,3.60
2010,04,08,06,43,3.60
2010,04,08,06,44,3.60
2010,04,08,06,45,3.60
2010,04,08,06,46,3.70
2010,04,08,06,47,3.70
2010,04,08,06,48,3.80
2010,04,08,06,49,3.80
2010,04,08,06,50,3.80
2010,04,08,06,51,3.80
2010,04,08,06,52,3.80
2010,04,08,06,53,3.80
2010,04,08,06,54,3.70
2010,04,08,06,55,3.70
2010,04,08,06,56,3.60
2010,04,08,06,57,3.60
2010,04,08,06,58,3.50
2010,04,08,06,59,3.60
2010,04,08,07,00,3.60
2010,04,08,07,01,3.60
2010,04,08,07,02,3.60
2010,04,08,07,03,3.60
2010,04,08,07,04,3.60
2010,04,08,07,05,3.60
2010,04,08,07,06,3.60
2010,04,08,07,07,3.60
2010,04,08,07,08,3.60
2010,04,08,07,09,3.70
2010,04,08,07,10,3.70
2010,04,08,07,11,3.70
2010,04,08,07,12,3.70
2010,04,08,07,13,3.70
2010,04,08,07,14,3.70
2010,04,08,07,15,3.70
2010,04,08,07,16,3.70
2010,04,08,07,17,3.70
2010,04,08,07,18,3.70
2010,04,08,07,19,3.70
2010,04,08,07,20,3.70
2010,04,08,07,21,3.70
2010,04,08,07,22,3.80
2010,04,08,07,23,3.80
2010,04,08,07,24,3.80
2010,04,08,07,25,3.80
2010,04,08,07,26,3.80
2010,04,08,07,27,3.80
2010,04,08,07,28,3.80
2010,04,08,07,29,3.80
2010,04,08,07,30,3.80
2010,04,08,07,31,3.90
2010,04,08,07,32,3.90
2010,04,08,07,33,3.90
2010,04,08,07,34,3.90
2010,04,08,07,35,3.90
2010,04,08,07,36,3.90
2010,04,08,07,37,3.90
2010,04,08,07,38,4.00
2010,04,08,07,39,4.00
2010,04,08,07,40,4.00
2010,04,08,07,41,4.00
2010,04,08,07,42,4.10
2010,04,08,07,43,4.10
2010,04,08,07,44,4.10
2010,04,08,07,45,4.10
2010,04,08,07,46,4.10
2010,04,08,07,47,4.10
2010,04,08,07,48,4.10
2010,04,08,07,49,4.10
2010,04,08,07,50,4.20
2010,04,08,07,51,4.20
2010,04,08,07,52,4.30
2010,04,08,07,53,4.30
2010,04,08,07,54,4.30
2010,04,08,07,55,4.40
2010,04,08,07,56,4.40
2010,04,08,07,57,4.40
2010,04,08,07,58,4.50
2010,04,08,07,59,4.50
2010,04,08,08,00,4.50
2010,04,08,08,01,4.50
2010,04,08,08,02,4.60
2010,04,08,08,03,4.60
2010,04,08,08,04,4.60
2010,04,08,08,05,4.60
2010,04,08,08,06,4.60
2010,04,08,08,07,4.60
2010,04,08,08,08,4.70
2010,04,08,08,09,4.70
2010,04,08,08,10,4.80
2010,04,08,08,11,4.80
2010,04,08,08,12,4.80
2010,04,08,08,13,4.90
2010,04,08,08,14,4.90
2010,04,08,08,15,4.90
2010,04,08,08,16,4.90
2010,04,08,08,17,4.90
2010,04,08,08,18,4.90
2010,04,08,08,19,4.90
2010,04,08,08,20,5.00
2010,04,08,08,21,5.10
2010,04,08,08,22,5.10
2010,04,08,08,23,5.10
2010,04,08,08,24,5.10
2010,04,08,08,25,5.10
2010,04,08,08,26,5.10
2010,04,08,08,27,5.20
2010,04,08,08,28,5.20
2010,04,08,08,29,5.20
2010,04,08,08,30,5.30
2010,04,08,08,31,5.30
2010,04,08,08,32,5.30
2010,04,08,08,33,5.30
2010,04,08,08,34,5.30
2010,04,08,08,35,5.30
2010,04,08,08,36,5.30
2010,04,08,08,37,5.30
2010,04,08,08,38,5.30
2010,04,08,08,39,5.30
2010,04,08,08,40,5.30
2010,04,08,08,41,5.30
2010,04,08,08,42,5.30
2010,04,08,08,43,5.30
2010,04,08,08,44,5.30
2010,04,08,08,45,5.40
2010,04,08,08,46,5.40
2010,04,08,08,47,5.40
2010,04,08,08,48,5.50
2010,04,08,08,49,5.50
2010,04,08,08,50,5.50
2010,04,08,08,51,5.50
2010,04,08,08,52,5.50
2010,04,08,08,53,5.50
2010,04,08,08,54,5.50
2010,04,08,08,55,5.60
2010,04,08,08,56,5.60
2010,04,08,08,57,5.60
2010,04,08,08,58,5.60
2010,04,08,08,59,5.60
2010,04,08,09,00,5.70
2010,04,08,09,01,5.70
2010,04,08,09,02,5.70
2010,04,08,09,03,5.70
2010,04,08,09,04,5.70
2010,04,08,09,05,5.70
2010,04,08,09,06,5.70
2010,04,08,09,07,5.80
2010,04,08,09,08,5.80
2010,04,08,09,09,5.80
2010,04,08,09,10,5.80
2010,04,08,09,11,5.80
2010,04,08,09,12,5.80
2010,04,08,09,13,5.80
2010,04,08,09,14,5.90
2010,04,08,09,15,5.90
2010,04,08,09,16,5.90
2010,04,08,09,17,5.90
2010,04,08,09,18,5.90
2010,04,08,09,19,5.90
2010,04,08,09,20,6.00
2010,04,08,09,21,6.00
2010,04,08,09,22,6.00
2010,04,08,09,23,6.00
2010,04,08,09,24,6.00
2010,04,08,09,25,6.00
2010,04,08,09,26,6.00
2010,04,08,09,27,6.00
2010,04,08,09,28,5.90
2010,04,08,09,29,5.90
2010,04,08,09,30,6.00
2010,04,08,09,31,6.00
2010,04,08,09,32,6.10
2010,04,08,09,33,6.20
2010,04,08,09,34,6.20
2010,04,08,09,35,6.20
2010,04,08,09,36,6.20
2010,04,08,09,37,6.10
2010,04,08,09,38,6.10
2010,04,08,09,39,6.10
2010,04,08,09,40,6.20
2010,04,08,09,41,6.20
2010,04,08,09,42,6.20
2010,04,08,09,43,6.20
2010,04,08,09,44,6.30
2010,04,08,09,45,6.30
2010,04,08,09,46,6.30
2010,04,08,09,47,6.30
2010,04,08,09,48,6.30
2010,04,08,09,49,6.30
2010,04,08,09,50,6.30
2010,04,08,09,51,6.30
2010,04,08,09,52,6.30
2010,04,08,09,53,6.30
2010,04,08,09,54,6.30
2010,04,08,09,55,6.30
2010,04,08,09,56,6.30
2010,04,08,09,57,6.30
2010,04,08,09,58,6.30
2010,04,08,09,59,6.30
2010,04,08,10,00,6.30
2010,04,08,10,01,6.30
2010,04,08,10,02,6.40
2010,04,08,10,03,6.40
2010,04,08,10,04,6.40
2010,04,08,10,05,6.40
2010,04,08,10,06,6.40
2010,04,08,10,07,6.40
2010,04,08,10,08,6.30
2010,04,08,10,09,6.30
2010,04,08,10,10,6.30
2010,04,08,10,11,6.30
2010,04,08,10,12,6.30
2010,04,08,10,13,6.30
2010,04,08,10,14,6.40
2010,04,08,10,15,6.40
2010,04,08,10,16,6.60
2010,04,08,10,17,6.60
2010,04,08,10,18,6.60
2010,04,08,10,19,6.60
2010,04,08,10,20,6.60
2010,04,08,10,21,6.70
2010,04,08,10,22,6.70
2010,04,08,10,23,6.60
2010,04,08,10,24,6.60
2010,04,08,10,25,6.60
2010,04,08,10,26,6.60
2010,04,08,10,27,6.70
2010,04,08,10,28,6.70
2010,04,08,10,29,6.70
2010,04,08,10,30,6.80
2010,04,08,10,31,6.80
2010,04,08,10,32,6.80
2010,04,08,10,33,6.70
2010,04,08,10,34,6.80
2010,04,08,10,35,6.80
2010,04,08,10,36,6.90
2010,04,08,10,37,7.00
2010,04,08,10,38,7.00
2010,04,08,10,39,7.00
2010,04,08,10,40,7.00
2010,04,08,10,41,7.00
2010,04,08,10,42,7.00
2010,04,08,10,43,7.00
2010,04,08,10,44,7.00
2010,04,08,10,45,7.10
2010,04,08,10,46,7.20
2010,04,08,10,47,7.30
2010,04,08,10,48,7.30
2010,04,08,10,49,7.20
2010,04,08,10,50,7.20
2010,04,08,10,51,7.30
2010,04,08,10,52,7.30
2010,04,08,10,53,7.30
2010,04,08,10,54,7.30
2010,04,08,10,55,7.30
2010,04,08,10,56,7.30
2010,04,08,10,57,7.30
2010,04,08,10,58,7.20
2010,04,08,10,59,7.20
2010,04,08,11,00,7.30
2010,04,08,11,01,7.30
2010,04,08,11,02,7.30
2010,04,08,11,03,7.30
2010,04,08,11,04,7.30
2010,04,08,11,05,7.30
2010,04,08,11,06,7.30
2010,04,08,11,07,7.20
2010,04,08,11,08,7.30
2010,04,08,11,09,7.30
2010,04,08,11,10,7.30
2010,04,08,11,11,7.30
2010,04,08,11,12,7.30
2010,04,08,11,13,7.30
2010,04,08,11,14,7.30
2010,04,08,11,15,7.40
2010,04,08,11,16,7.40
2010,04,08,11,17,7.40
2010,04,08,11,18,7.40
2010,04,08,11,19,7.50
2010,04,08,11,20,7.50
2010,04,08,11,21,7.50
2010,04,08,11,22,7.60
2010,04,08,11,23,7.50
2010,04,08,11,24,7.50
2010,04,08,11,25,7.50
2010,04,08,11,26,7.60
2010,04,08,11,27,7.60
2010,04,08,11,28,7.60
2010,04,08,11,29,7.60
2010,04,08,11,30,7.50
2010,04,08,11,31,7.50
2010,04,08,11,32,7.50
2010,04,08,11,33,7.40
2010,04,08,11,34,7.50
2010,04,08,11,35,7.60
2010,04,08,11,36,7.60
2010,04,08,11,37,7.60
2010,04,08,11,38,7.70
2010,04,08,11,39,7.70
2010,04,08,11,40,7.60
2010,04,08,11,41,7.40
2010,04,08,11,42,7.50
2010,04,08,11,43,7.50
2010,04,08,11,44,7.50
2010,04,08,11,45,7.60
2010,04,08,11,46,7.70
2010,04,08,11,47,7.80
2010,04,08,11,48,7.80
2010,04,08,11,49,7.80
2010,04,08,11,50,7.70
2010,04,08,11,51,7.70
2010,04,08,11,52,7.60
2010,04,08,11,53,7.60
2010,04,08,11,54,7.70
2010,04,08,11,55,7.80
2010,04,08,11,56,7.80
2010,04,08,11,57,7.80
2010,04,08,11,58,7.90
2010,04,08,11,59,7.90
2010,04,08,12,00,7.90
2010,04,08,12,01,7.90
2010,04,08,12,02,7.80
2010,04,08,12,03,7.80
2010,04,08,12,04,7.80
2010,04,08,12,05,7.90
2010,04,08,12,06,7.90
2010,04,08,12,07,8.00
2010,04,08,12,08,8.20
2010,04,08,12,09,8.40
2010,04,08,12,10,8.40
2010,04,08,12,11,8.40
2010,04,08,12,12,8.30
2010,04,08,12,13,8.20
2010,04,08,12,14,8.20
2010,04,08,12,15,8.20
2010,04,08,12,16,8.20
2010,04,08,12,17,8.10
2010,04,08,12,18,8.10
2010,04,08,12,19,8.20
2010,04,08,12,20,8.20
2010,04,08,12,21,8.30
2010,04,08,12,22,8.30
2010,04,08,12,23,8.30
2010,04,08,12,24,8.20
2010,04,08,12,25,8.20
2010,04,08,12,26,8.10
2010,04,08,12,27,8.10
2010,04,08,12,28,8.00
2010,04,08,12,29,8.00
2010,04,08,12,30,8.00
2010,04,08,12,31,8.00
2010,04,08,12,32,8.10
2010,04,08,12,33,8.20
2010,04,08,12,34,8.30
2010,04,08,12,35,8.40
2010,04,08,12,36,8.40
2010,04,08,12,37,8.40
2010,04,08,12,38,8.30
2010,04,08,12,39,8.30
2010,04,08,12,40,8.30
2010,04,08,12,41,8.40
2010,04,08,12,42,8.50
2010,04,08,12,43,8.40
2010,04,08,12,44,8.30
2010,04,08,12,45,8.30
2010,04,08,12,46,8.30
2010,04,08,12,47,8.40
2010,04,08,12,48,8.50
2010,04,08,12,49,8.50
2010,04,08,12,50,8.50
2010,04,08,12,51,8.60
2010,04,08,12,52,8.70
2010,04,08,12,53,8.70
2010,04,08,12,54,8.70
2010,04,08,12,55,8.70
2010,04,08,12,56,8.60
2010,04,08,12,57,8.40
2010,04,08,12,58,8.40
2010,04,08,12,59,8.40
2010,04,08,13,00,8.40
2010,04,08,13,01,8.60
2010,04,08,13,02,8.70
2010,04,08,13,03,8.70
2010,04,08,13,04,8.90
2010,04,08,13,05,9.10
2010,04,08,13,06,9.20
2010,04,08,13,07,9.20
2010,04,08,13,08,9.00
2010,04,08,13,09,8.90
2010,04,08,13,10,8.70
2010,04,08,13,11,8.60
2010,04,08,13,12,8.50
2010,04,08,13,13,8.40
2010,04,08,13,14,8.50
2010,04,08,13,15,8.50
2010,04,08,13,16,8.60
2010,04,08,13,17,8.80
2010,04,08,13,18,8.90
2010,04,08,13,19,8.90
2010,04,08,13,20,8.80
2010,04,08,13,21,8.80
2010,04,08,13,22,9.00
2010,04,08,13,23,9.20
2010,04,08,13,24,9.20
2010,04,08,13,25,9.20
2010,04,08,13,26,9.20
2010,04,08,13,27,9.20
2010,04,08,13,28,9.10
2010,04,08,13,29,9.10
2010,04,08,13,30,9.10
2010,04,08,13,31,9.20
2010,04,08,13,32,9.20
2010,04,08,13,33,9.30
2010,04,08,13,34,9.30
2010,04,08,13,35,9.20
2010,04,08,13,36,9.20
2010,04,08,13,37,9.10
2010,04,08,13,38,9.00
2010,04,08,13,39,9.00
2010,04,08,13,40,9.00
2010,04,08,13,41,9.10
2010,04,08,13,42,9.10
2010,04,08,13,43,9.00
2010,04,08,13,44,9.10
2010,04,08,13,45,9.10
2010,04,08,13,46,9.10
2010,04,08,13,47,9.00
2010,04,08,13,48,9.10
2010,04,08,13,49,9.20
2010,04,08,13,50,9.20
2010,04,08,13,51,9.10
2010,04,08,13,53,9.20
2010,04,08,13,54,9.20
2010,04,08,13,55,9.10
2010,04,08,13,56,9.00
2010,04,08,13,57,8.90
2010,04,08,13,58,8.90
2010,04,08,13,59,8.80
2010,04,08,14,00,8.70
2010,04,08,14,01,8.70
2010,04,08,14,02,8.70
2010,04,08,14,03,8.80
2010,04,08,14,04,8.90
2010,04,08,14,05,9.00
2010,04,08,14,06,8.90
2010,04,08,14,07,8.90
2010,04,08,14,08,8.70
2010,04,08,14,09,8.60
2010,04,08,14,10,8.60
2010,04,08,14,11,8.60
2010,04,08,14,12,8.50
2010,04,08,14,13,8.50
2010,04,08,14,14,8.60
2010,04,08,14,15,8.70
2010,04,08,14,16,8.70
2010,04,08,14,17,8.70
2010,04,08,14,18,8.80
2010,04,08,14,19,8.90
2010,04,08,14,20,8.90
2010,04,08,14,21,9.00
2010,04,08,14,22,9.20
2010,04,08,14,23,9.30
2010,04,08,14,24,9.40
2010,04,08,14,25,9.50
2010,04,08,14,26,9.60
2010,04,08,14,27,9.50
2010,04,08,14,28,9.40
2010,04,08,14,29,9.40
2010,04,08,14,30,9.40
2010,04,08,14,31,9.40
2010,04,08,14,32,9.50
2010,04,08,14,33,9.50
2010,04,08,14,34,9.50
2010,04,08,14,35,9.50
2010,04,08,14,36,9.50
2010,04,08,14,37,9.60
2010,04,08,14,38,9.60
2010,04,08,14,39,9.70
2010,04,08,14,40,9.80
2010,04,08,14,41,9.80
2010,04,08,14,42,9.60
2010,04,08,14,43,9.40
2010,04,08,14,44,9.30
2010,04,08,14,45,9.40
2010,04,08,14,46,9.50
2010,04,08,14,47,9.60
2010,04,08,14,48,9.60
2010,04,08,14,49,9.40
2010,04,08,14,50,9.30
2010,04,08,14,51,9.20
2010,04,08,14,52,9.20
2010,04,08,14,53,9.20
2010,04,08,14,54,9.20
2010,04,08,14,55,9.20
2010,04,08,14,56,9.20
2010,04,08,14,57,9.30
2010,04,08,14,58,9.20
2010,04,08,14,59,9.20
2010,04,08,15,00,9.20
2010,04,08,15,01,9.30
2010,04,08,15,02,9.20
2010,04,08,15,03,9.20
2010,04,08,15,04,9.20
2010,04,08,15,05,9.10
2010,04,08,15,06,8.90
2010,04,08,15,07,8.90
2010,04,08,15,08,8.90
2010,04,08,15,09,9.00
2010,04,08,15,10,8.90
2010,04,08,15,11,8.80
2010,04,08,15,12,8.80
2010,04,08,15,13,8.80
2010,04,08,15,14,8.80
2010,04,08,15,15,8.80
2010,04,08,15,16,8.80
2010,04,08,15,17,8.80
2010,04,08,15,18,8.90
2010,04,08,15,19,8.90
2010,04,08,15,20,8.90
2010,04,08,15,21,8.90
2010,04,08,15,22,8.90
2010,04,08,15,23,8.90
2010,04,08,15,24,8.90
2010,04,08,15,25,9.00
2010,04,08,15,26,9.10
2010,04,08,15,27,9.10
2010,04,08,15,28,9.20
2010,04,08,15,29,9.20
2010,04,08,15,30,9.10
2010,04,08,15,31,9.00
2010,04,08,15,32,8.90
2010,04,08,15,33,8.90
2010,04,08,15,34,9.00
2010,04,08,15,35,9.10
2010,04,08,15,36,9.10
2010,04,08,15,37,9.10
2010,04,08,15,38,9.10
2010,04,08,15,39,9.10
2010,04,08,15,40,9.10
2010,04,08,15,41,9.00
2010,04,08,15,42,8.90
2010,04,08,15,43,8.90
2010,04,08,15,44,9.00
2010,04,08,15,45,9.00
2010,04,08,15,46,9.00
2010,04,08,15,47,9.10
2010,04,08,15,48,9.20
2010,04,08,15,49,9.20
2010,04,08,15,50,9.20
2010,04,08,15,51,9.10
2010,04,08,15,52,9.00
2010,04,08,15,53,8.90
2010,04,08,15,54,8.80
2010,04,08,15,55,8.80
2010,04,08,15,56,8.70
2010,04,08,15,57,8.70
2010,04,08,15,58,8.70
2010,04,08,15,59,8.70
2010,04,08,16,00,8.80
2010,04,08,16,01,8.90
2010,04,08,16,02,8.90
2010,04,08,16,03,8.90
2010,04,08,16,04,9.00
2010,04,08,16,05,9.00
2010,04,08,16,06,9.00
2010,04,08,16,07,9.00
2010,04,08,16,08,9.00
2010,04,08,16,09,8.90
2010,04,08,16,10,8.90
2010,04,08,16,11,8.90
2010,04,08,16,12,8.90
2010,04,08,16,13,8.80
2010,04,08,16,14,8.90
2010,04,08,16,15,8.90
2010,04,08,16,16,8.80
2010,04,08,16,17,8.80
2010,04,08,16,18,8.80
2010,04,08,16,19,8.90
2010,04,08,16,20,9.00
2010,04,08,16,21,9.20
2010,04,08,16,22,9.10
2010,04,08,16,23,9.10
2010,04,08,16,24,9.00
2010,04,08,16,25,8.90
2010,04,08,16,26,8.80
2010,04,08,16,27,8.60
2010,04,08,16,28,8.50
2010,04,08,16,29,8.50
2010,04,08,16,30,8.50
2010,04,08,16,31,8.50
2010,04,08,16,32,8.50
2010,04,08,16,33,8.50
2010,04,08,16,34,8.40
2010,04,08,16,35,8.30
2010,04,08,16,36,8.30
2010,04,08,16,37,8.30
2010,04,08,16,38,8.20
2010,04,08,16,39,8.20
2010,04,08,16,40,8.30
2010,04,08,16,41,8.50
2010,04,08,16,42,8.40
2010,04,08,16,43,8.40
2010,04,08,16,44,8.40
2010,04,08,16,45,8.30
2010,04,08,16,46,8.30
2010,04,08,16,47,8.30
2010,04,08,16,48,8.30
2010,04,08,16,49,8.30
2010,04,08,16,50,8.30
2010,04,08,16,51,8.30
2010,04,08,16,52,8.50
2010,04,08,16,53,8.50
2010,04,08,16,54,8.60
2010,04,08,16,55,8.70
2010,04,08,16,56,8.80
2010,04,08,16,57,8.90
2010,04,08,16,58,8.90
2010,04,08,16,59,8.80
2010,04,08,17,00,8.80
2010,04,08,17,01,8.80
2010,04,08,17,02,8.80
2010,04,08,17,03,8.80
2010,04,08,17,04,8.80
2010,04,08,17,05,8.90
2010,04,08,17,06,8.90
2010,04,08,17,07,8.80
2010,04,08,17,08,8.80
2010,04,08,17,09,8.70
2010,04,08,17,10,8.70
2010,04,08,17,11,8.70
2010,04,08,17,12,8.60
2010,04,08,17,13,8.60
2010,04,08,17,14,8.50
2010,04,08,17,15,8.50
2010,04,08,17,16,8.60
2010,04,08,17,17,8.60
2010,04,08,17,18,8.60
2010,04,08,17,19,8.60
2010,04,08,17,20,8.60
2010,04,08,17,21,8.70
2010,04,08,17,22,8.60
2010,04,08,17,23,8.60
2010,04,08,17,24,8.60
2010,04,08,17,25,8.50
2010,04,08,17,26,8.50
2010,04,08,17,27,8.40
2010,04,08,17,28,8.40
2010,04,08,17,29,8.50
2010,04,08,17,30,8.40
2010,04,08,17,31,8.40
2010,04,08,17,32,8.40
2010,04,08,17,33,8.40
2010,04,08,17,34,8.30
2010,04,08,17,35,8.30
2010,04,08,17,36,8.40
2010,04,08,17,37,8.60
2010,04,08,17,38,8.60
2010,04,08,17,39,8.50
2010,04,08,17,40,8.30
2010,04,08,17,41,8.30
2010,04,08,17,42,8.20
2010,04,08,17,43,8.20
2010,04,08,17,44,8.20
2010,04,08,17,45,8.00
2010,04,08,17,46,7.90
2010,04,08,17,47,7.80
2010,04,08,17,48,7.80
2010,04,08,17,49,7.70
2010,04,08,17,50,7.70
2010,04,08,17,51,7.80
2010,04,08,17,52,7.80
2010,04,08,17,53,7.80
2010,04,08,17,54,7.70
2010,04,08,17,55,7.50
2010,04,08,17,56,7.40
2010,04,08,17,57,7.30
2010,04,08,17,58,7.30
2010,04,08,17,59,7.10
2010,04,08,18,00,7.00
2010,04,08,18,01,6.90
2010,04,08,18,02,6.80
2010,04,08,18,03,6.80
2010,04,08,18,04,6.80
2010,04,08,18,05,6.70
2010,04,08,18,06,6.70
2010,04,08,18,07,6.70